Погода Унский Маяк

Погода Унский Маяк : погода сейчас, прогноз погоды и архив. Всё, что Вы хотите узнать о погоде Унский Маяк!

Поиск расширенной информации на нашем сайте:

Другие новости

Новости СМИ2

Главная страница сайта

Новости сайта

03.07.2017

Напоминаем, что на нашем специализированном сайте Метеоцентр.Азия вы можете получить высокодетализированные автоматические прогнозы погоды по пунктам России, СНГ и мира в авиационном формате (включающие направление и скорость ветра, видимость, явления погоды, количество и форму облачности, нижнюю и верхнюю границу облачности).

Рекомендуем: амортизатор АКСС

Погода Унский Маяк - сегодня

Время (UTC), дата Ветер
(°,м/с) 
Видим.   Явления Облачность Т
(°С)
Тd
(°С)
f(%) Тe
(°С)
Pmin
(гПа)
dP
(гПа)
Po
(мм)
O2
(г/м3)
Тmin Tmax R s Состояние
почвы
06 06.09.18 130 (ЮВ) 10 км  слаб. ливневой дождь  10/10 300 м кучево-дожд. 
[Cb cap]
+14.7 +14 96 +21  1021.5  -2.2  766  290           
06 07.09.18 280 (З) 20000 м  {туман}  10/10 600 м 
[Sc]
+15.1 +14.4 96 +23  1017.6  -0.4  763  288           
06 08.09.18 050 (СВ) 7{10}  20000 м    10/10 300 м кучево-дожд. 
[Cb cap]
+11.3 +8.9 85 +10  1024.8  2.4  768  296           
06 09.09.18 360 (С) 20000 м    8/6 600 м средняя 
[Sc|Ac lent]
+10.1 +4.3 67 +10  1029.3  0.9  772  299           
06 10.09.18 230 (ЮЗ) 20000 м    1/0 верхняя 
[Ci fib]
+10.7 +9.1 90 +11  1028.5  -0.1  771  297           
06 11.09.18 220 (ЮЗ) 20000 м    1/0 верхняя 
[Ci fib]
+12.1 +9.8 86 +12  1024.1  -1.5  768  294           
06 12.09.18 180 (Ю) 20000 м    10/10 600 м 
[Sc]
+11.8 +10 89 +12  1001.6  -9.6  751  288           
06 13.09.18 280 (З) 10 км  слаб. ливневой дождь  10/10 300 м кучево-дожд. 
[Cb cap]
+11 +10.2 95 +12  980.7  0.5  735  283           
06 14.09.18 250 (З) 2{11}  10 км  слаб. ливневой дождь  10/10 300 м кучево-дожд. 
[Cb cap]
+11 +10.2 95 +12  1006  3.7  754  290           
06 15.09.18 210 (ЮЗ) 20000 м  в посл. час ливневой дождь  9/9 300 м кучево-дожд. 
[Cb cap]
+11.1 +10.3 95 +12  1010.6  0.2  758  291           
06 16.09.18 190 (Ю) 20000 м  в посл. час ливневой дождь  10/10 300 м кучево-дожд. 
[Cb cap]
+12.1 +9.5 84 +12  1007.4  -2.5  755  290           
06 17.09.18 230 (ЮЗ) 20000 м    3/1 600 м средняя, верхняя 
[Sc|Ac lent|Ci fib]
+8.8 +7.5 92 +9  1002.2  -0.6  751  292           
06 18.09.18 250 (З) 20000 м    6/0 средняя, верхняя 
[Ac lent|Cc]
+9.6 +8.2 91 +10  1000.3  0.4  750  290           
09 18.09.18 310 (СЗ) 20000 м    6/1 600 м средняя, верхняя 
[Sc|Ac lent|Ci fib]
+12.8 +7 68 +13  1000.8  0.5  750  288           
06 19.09.18 260 (З) 20000 м    1/0 верхняя 
[Ci fib]
+10.1 +7.4 83 +10  1004.8  0.6  753  291  +4.8         
09 19.09.18 300 (СЗ) 20000 м    1/1 600 м 
[Cu hum]
+12.9 +7.4 69 +13  1005.2  0.4  754  289           
06 20.09.18 140 (ЮВ) 20000 м    9/6 600 м средняя, верхняя 
[Sc|Ac lent|Ci fib]
+10.8 +9.4 91 +10  1003.5  -0.3  752  290           
09 20.09.18 170 (Ю) 20000 м    9/8 600 м средняя, верхняя 
[Sc|Ac lent|Ci fib]
+12.6 +10.5 87 +15  1003.4  -0.1  752  288           
09 22.09.18 200 (Ю) 4{11}  20000 м    8/0 средняя, верхняя 
[Ac lent|Cc]
+20.5 +14.1 67 +28  999.1  -2.1  749  278           
06 23.09.18 200 (Ю) 20000 м    9/6 300 м средняя, верхняя 
[Cu Sc|Ac lent|Ci fib]
+11.7 +8.9 83 +11  996.4  -1  747  287  +10.8         
09 23.09.18 210 (ЮЗ) 3{10}  20000 м    9/8 300 м средняя 
[Sc|Ac lent]
+13.2 +8.6 74 +13  995.8  -0.6  746  285           
06 24.09.18 220 (ЮЗ) 20000 м  в посл. час ливневой дождь  8/6 300 м кучево-дожд., средняя 
[Cb cap|Ac lent]
+10.3 +6.9 79 +10  996.8  1.2  747  289           
09 24.09.18 220 (ЮЗ) 20000 м    4/4 300 м 
[Cu Sc]
+12.1 +4.9 61 +12  997.8  748  288           
06 25.09.18 250 (З) 20000 м    3/0 средняя, верхняя 
[Ac lent|Ci fib]
+6 +5.3 95 +6  1003.3  0.9  752  296  +2.7         
09 25.09.18 310 (СЗ) 20000 м    8/6 600 м средняя, верхняя 
[Cu hum|Ac lent|Ci fib]
+8.9 +5.6 80 +7  1003.9  0.6  752  293           
Время (UTC), дата Ветер
(°,м/с) 
Видим.   Явления Облачность Т
(°С)
Тd
(°С)
f(%) Тe
(°С)
Pmin
(гПа)
dP
(гПа)
Po
(мм)
O2
(г/м3)
Тmin Tmax R s Состояние
почвы

Для получения пояснительной информации подведите курсор к названию столбца.

ПОГОДА Унский Маяк - архив

Всё, что Вы хотите узнать о погоде Унский Маяк - удобно и подробно!

Выберите нужную дату (начиная с 1 января 2015* года) и нажмите кнопку "Найти".
Будут отображены архивные сводки погоды по пункту Унский Маяк, начиная с указанной даты.


Отображать данные в формате CSV (для использования в таблицах Excel)


Внимание! Наш архив погоды предназначен исключительно для личного некоммерческого использования в познавательных целях. Если Вам необходимы официальные справки о состоянии погоды (для производственных, юридических, коммерческих и т.п. целей), обращайтесь в органы Росгидромета.

*Примечание: данная дата относится к архиву по метеостанциям СССР (Россия, СНГ, Балтия).
Архив по метеостанциям Зарубежной Европы и Азии (кроме Китая) хранится 10 дней, по другим регионам земного шара (Китай, Африка, Америка, Австралия, Океания) - 1 день.

Унский Маяк - район местоположения метеостанции


Название, широта, долгота, высота метеостанции:
Унский Маяк 64.8°ш. 38.4°д. 5 м над ур. моря [Российская Федерация]

Дополнительная информация

В oтличие oт бoльшинства пoгoдных сайтoв мы публикуем пoдрoбную метеoинфoрмацию в детальнoм прoфессиoнальнoм фoрмате.

Характеристики температуры и влажнoсти вoздуха измеряются на высoте 2 м в тени вдали oт зданий и деревьев.
Скoрoсть ветра измеряется на высoте 10 м (на урoвне рoста челoвека скoрoсть ветра ниже в 1.5-2 раза). Если метеoстанция нахoдится в гoрoде или в лесу, тo скoрoсть ветра занижена на 2-4 м/с пo сравнению с oткрытым местoм. Скoрoсть ветра над акватoриями крупных рек и oзёр, а также на вершинах хoлмoв на 2-5 м/с выше, чем в oбычных услoвиях.
Атмoсфернoе давление в разных тoчках местнoсти мoжет значительнo oтличаться oт давления на метеoстанции, в зависимoсти oт услoвий рельефа (при пoдъёме на 10 м давление пoнижается примернo на 1 мм рт.ст.).